Weather observations for the past three days for
Warsaw, Warsaw Municipal Airport
Imperial (Metric)
Date Time (edt) Wind (mph) Vis. (mi.) Weather Sky Cond. Temperature (ºF) Relative Humidity Wind Chill (°F) Heat Index (°F) Pressure Precipitation (in)
Air Dwpt 6 hour altimeter (in) sea level (mb) 1 hr 3 hr 6 hr
Max. Min.
18 10:55 N 9 10.00 Mostly Cloudy SCT025 BKN032 64.4 53.8 69% 30.17 0.0
18 10:35 N 7 10.00 Mostly Cloudy BKN023 BKN029 64 54.1 70% 30.18 0.0
18 10:15 N 10 10.00 Mostly Cloudy BKN023 64.2 55.2 73% 30.17 0.0
18 09:55 N 5 10.00 Partly Cloudy SCT019 63.3 55 75% 30.17 0.0
18 09:15 NE 6 10.00 Partly Cloudy SCT015 61.9 55 78% 30.17 0.0
18 08:35 N 9 10.00 Partly Cloudy SCT013 60.1 54.7 82% 30.16 0.0
18 08:15 N 6 10.00 Fair CLR 59.4 55 86% 30.15 0.0
18 07:55 N 3 10.00 Fair CLR 58.5 54.5 87% 30.15 0.0
18 07:35 N 3 10.00 Fair CLR 57.7 54.3 88% 30.14 0.0
18 07:15 N 5 10.00 Fair CLR 57.2 54 89% 30.14 0.0
18 06:55 N 6 10.00 Fair CLR 56.5 53.6 90% 30.13 0.0
18 06:35 N 5 10.00 Fair CLR 56.3 53.6 91% 30.12 0.0
18 06:15 N 3 10.00 Fair CLR 56.3 53.4 90% 30.12 0.0
18 05:55 N 3 10.00 Fair CLR 56.3 53.2 90% 30.12 0.0
18 05:35 Calm 10.00 Fair CLR 56.7 53.2 88% 30.11 0.0
18 05:15 Calm 10.00 Fair CLR 56.7 53.1 88% 30.11 0.0
18 04:55 Calm 10.00 Fair CLR 57.2 53.1 86% 30.1 0.0
18 04:35 N 3 10.00 Fair CLR 57.4 53.2 86% 30.09 0.0
18 04:15 Calm 10.00 Fair CLR 57.6 53.6 87% 30.09 0.0
18 03:55 N 3 10.00 Fair CLR 58.1 53.6 85% 30.09 0.0
18 03:35 Calm 10.00 Fair CLR 58.1 53.8 86% 30.09 0.0
18 03:15 N 3 10.00 Fair CLR 58.5 53.8 85% 30.09 0.0
18 02:55 N 5 10.00 Fair CLR 58.8 53.6 83% 30.09 0.0
18 02:35 N 3 10.00 Fair CLR 59.2 53.8 82% 30.09 0.0
18 02:15 N 3 10.00 Fair CLR 59.5 53.8 81% 30.09 0.0
18 01:55 NW 5 10.00 Fair CLR 60.3 53.8 79% 30.09 0.0
18 01:35 NW 6 10.00 Fair CLR 60.6 53.6 78% 30.09 0.0
18 01:15 NW 6 10.00 Fair CLR 61 53.6 77% 30.09 0.0
18 00:55 NW 5 10.00 Fair CLR 61.3 53.6 76% 30.09 0.0
18 00:35 NW 5 10.00 Fair CLR 61.9 53.6 74% 30.08 0.0
18 00:15 NW 5 10.00 Fair CLR 62.2 53.6 74% 30.08 0.0
17 23:55 NW 3 10.00 Fair CLR 62.6 53.6 73% 30.07 0.0
17 23:35 NW 3 10.00 Fair CLR 63 52.9 70% 30.06 0.0
17 23:15 NW 3 10.00 Fair CLR 63.5 53.1 69% 30.06 0.0
17 22:55 NW 3 10.00 Fair CLR 64.4 53.6 68% 30.06 0.0
17 22:35 N 5 10.00 Fair CLR 64.6 54 69% 30.06 0.0
17 22:15 N 5 10.00 Fair CLR 64.9 53.6 67% 30.06 0.0
17 21:55 N 5 10.00 Fair CLR 66.2 53.1 63% 30.05 0.0
17 21:35 N 3 10.00 Fair CLR 66.9 52.7 60% 30.04 0.0
17 21:15 N 5 10.00 Fair CLR 67.6 52.9 59% 30.03 0.0
17 20:55 N 5 10.00 Fair CLR 68.9 54 59% 30.02 0.0
17 20:35 N 5 10.00 Fair CLR 70 54.3 58% 30.02 0.0
17 20:15 N 6 10.00 Fair CLR 71.4 53.4 53% 30.01 0.0
17 19:55 N 6 10.00 Fair CLR 72.5 56.3 57% 30.01 0.0
17 19:35 N 13 G 16 10.00 Fair CLR 73.4 56.1 55% 30 0.0
17 19:15 N 12 G 17 10.00 Fair CLR 73.8 55.6 53% 29.99 0.0
17 18:55 N 13 G 22 10.00 Fair CLR 74.3 55.2 52% 29.99 0.0
17 18:35 N 10 G 22 10.00 Fair CLR 75.2 56.7 53% 78 29.97 0.0
17 18:15 N 13 G 18 10.00 Fair CLR 76.1 57.4 52% 78 29.97 0.0
17 17:55 N 14 G 20 10.00 Fair CLR 76.5 58.6 54% 78 29.96 0.0
17 17:35 N 16 G 20 10.00 Fair CLR 77.2 59 54% 79 29.96 0.0
17 17:15 N 13 G 22 10.00 Fair CLR 77 58.3 53% 79 29.96 0.0
17 16:55 N 13 G 21 10.00 Fair CLR 77.9 60.1 54% 79 29.96 0.0
17 16:35 NW 17 G 24 10.00 Fair CLR 78.8 59.5 52% 80 29.96 0.0
17 16:15 NW 17 G 21 10.00 Fair CLR 79.2 60.6 53% 80 29.95 0.0
17 15:55 N 14 G 21 10.00 Partly Cloudy SCT044 79.2 61.2 54% 80 29.95 0.0
17 15:35 NW 16 10.00 Fair CLR 79.9 61.2 53% 81 29.94 0.0
17 15:15 NW 15 G 20 10.00 Fair CLR 80.6 62.1 53% 82 29.94 0.0
17 14:55 NW 15 G 20 10.00 Partly Cloudy SCT044 80.1 61.5 53% 81 29.94 0.0
17 14:35 NW 18 G 22 10.00 Partly Cloudy SCT043 SCT050 80.8 63.1 55% 82 29.94 0.0
17 14:15 NW 14 10.00 Partly Cloudy SCT041 SCT050 80.6 63.5 56% 82 29.94 0.0
17 13:55 NW 13 G 18 10.00 Partly Cloudy SCT038 SCT050 SCT075 79.3 65.5 63% 81 29.94 0.0
17 13:35 W 8 10.00 Partly Cloudy SCT031 SCT045 SCT065 77.9 67.8 71% 80 29.94 0.0
17 13:15 NW 16 10.00 Rain SCT031 SCT045 BKN070 78.4 65.5 65% 80 29.94 0.0
17 12:55 NW 6 10.00 Partly Cloudy SCT030 SCT041 SCT047 79.5 66 63% 82 29.94 0.0
17 12:35 N 9 10.00 Mostly Cloudy SCT032 SCT039 BKN047 79 65.5 63% 81 29.94 0.0
17 12:15 NW 8 10.00 Mostly Cloudy SCT039 SCT047 BKN060 79 65.1 63% 81 29.94 0.0
17 11:55 N 6 10.00 Overcast SCT047 OVC050 77.7 64.6 64% 80 29.94 0.0
17 11:35 NW 3 10.00 Overcast SCT029 OVC055 78.6 66 65% 81 29.94 0.0
17 11:15 NW 7 10.00 Mostly Cloudy SCT029 BKN060 78.6 66.4 66% 81 29.93 0.0
17 10:55 N 8 10.00 Mostly Cloudy BKN060 77.2 65.1 66% 79 29.93 0.0
17 10:35 NW 5 10.00 Mostly Cloudy BKN060 76.6 66.7 72% 78 29.92 0.0
17 10:15 N 5 10.00 Mostly Cloudy BKN060 BKN095 76.5 66.6 72% 78 29.92 0.0
17 09:55 N 5 10.00 Mostly Cloudy BKN070 74.5 66 75% 29.92 0.0
17 09:35 N 5 10.00 Mostly Cloudy BKN070 BKN110 74.3 66.9 78% 29.92 0.0
17 09:15 N 5 10.00 Partly Cloudy SCT070 SCT110 73.6 65.5 76% 29.92 0.0
17 08:55 N 5 10.00 Fair CLR 73.9 67.8 81% 29.91 0.0
17 08:35 Calm 7.00 Partly Cloudy SCT060 SCT110 72.7 69.6 90% 29.91 0.0
17 08:15 Calm 4.00 Fog/Mist BKN050 BKN110 71.6 70 95% 29.91 0.0
17 07:55 Calm 3.00 Fog/Mist OVC050 70.7 70 98% 29.91 0.0
17 07:35 Calm 1.75 Fog/Mist BKN050 70 69.6 99% 29.92 0.0
17 07:15 Calm 1.75 Fog/Mist VV007 70 69.8 99% 29.91 0.0
17 06:55 Calm 1.50 Fog/Mist VV007 70 69.8 99% 29.9 0.0
17 06:35 Calm 1.75 Fog/Mist VV007 70.2 69.8 99% 29.89 0.0
17 06:15 Calm 1.75 Fog/Mist VV007 70.5 70 98% 29.89 0.0
17 05:55 Calm 1.75 Fog/Mist VV007 70.3 70 99% 29.89 0.0
17 05:35 Calm 2.50 Fog/Mist CLR 70.7 70.2 98% 29.88 0.0
17 05:15 Calm 1.75 Fog/Mist VV007 70.7 70.3 99% 29.87 0.0
17 04:55 Calm 2.50 Fog/Mist SCT055 71.4 70.7 98% 29.87 0.0
17 04:35 Calm 3.00 Fog/Mist SCT006 SCT013 BKN018 71.6 71.4 99% 29.87 0.0
17 04:15 Calm 3.00 Fog/Mist SCT015 BKN022 OVC033 72 71.6 99% 29.87 0.0
17 03:55 Calm 3.00 Fog/Mist BKN024 71.8 71.4 99% 29.86 0.0
17 03:35 Calm 4.00 Fog/Mist SCT045 SCT110 72.1 71.6 98% 29.86 0.0
17 03:15 Calm 4.00 Light Rain SCT025 SCT038 BKN110 72 71.6 99% 29.87 0.0
17 02:55 Calm 5.00 Fog/Mist SCT004 SCT011 72.1 71.4 98% 29.87 0.0 0.01
17 02:35 NW 3 5.00 Light Rain SCT004 BKN013 BKN029 72.5 71.8 98% 29.87 0.0 0.01
17 02:15 NW 5 5.00 Fog/Mist BKN004 BKN008 OVC016 73 72.5 98% 29.87 0.0
17 01:55 W 7 7.00 Overcast OVC004 73.4 72.5 97% 29.87 0.0 0.03
17 01:35 W 7 5.00 Heavy Rain OVC004 73 72.1 97% 29.87 0.0 0.03
17 01:15 W 6 7.00 Overcast BKN006 OVC013 73 72.1 97% 29.88 0.0
17 00:55 W 3 7.00 Partly Cloudy SCT008 SCT015 72.5 71.8 98% 29.89 0.0
17 00:35 Calm 7.00 Partly Cloudy SCT022 SCT031 72 71.6 99% 29.89 0.0
17 00:15 Calm 4.00 Fog/Mist SCT022 SCT039 BKN050 70.7 70.3 99% 29.89 0.0
16 23:55 Calm 3.00 Fog/Mist SCT023 SCT029 BKN039 70.3 70 99% 29.88 0.0
16 23:35 Calm 4.00 Fog/Mist SCT029 SCT035 SCT041 70 69.6 99% 29.88 0.0
16 23:15 Calm 3.00 Fog/Mist SCT029 69.4 69.1 99% 29.88 0.0
16 22:55 Calm 7.00 Partly Cloudy SCT031 69.8 69.3 98% 29.87 0.0
16 22:35 Calm 5.00 Fog/Mist SCT038 70 69.4 98% 29.86 0.0
16 21:55 Calm 7.00 Fair CLR 70.7 69.8 97% 29.84 0.0
16 21:35 Calm 10.00 Fair CLR 72 69.6 92% 29.84 0.0
16 21:15 Calm 10.00 Partly Cloudy SCT060 SCT120 72.5 69.3 90% 29.84 0.0
16 20:55 W 6 10.00 Partly Cloudy SCT065 SCT120 73.4 69.8 89% 29.84 0.0 0.04
16 20:35 W 7 10.00 Mostly Cloudy SCT035 SCT047 BKN065 72.9 69.3 89% 29.84 0.0 0.04
16 20:15 W 6 4.00 Heavy Rain SCT025 BKN035 OVC070 72 68.9 90% 29.84 0.0 0.04
16 19:55 NW 14 G 21 10.00 Overcast BKN023 BKN029 OVC065 76.8 68.2 75% 78 29.84 0.0
16 19:35 NW 13 10.00 Mostly Cloudy SCT029 SCT037 BKN065 79.9 72.1 77% 84 29.83 0.0
16 19:15 W 8 10.00 Mostly Cloudy SCT022 SCT031 BKN046 80.1 72 76% 84 29.83 0.0
16 18:55 W 8 10.00 Mostly Cloudy SCT024 SCT033 BKN060 81 72.9 76% 86 29.83 0.0
16 18:35 SW 5 10.00 Mostly Cloudy BKN024 BKN037 BKN043 81 73 77% 86 29.82 0.0
16 18:15 W 9 10.00 Overcast BKN024 OVC041 82 72.7 73% 87 29.83 0.0
16 17:55 W 8 10.00 Mostly Cloudy SCT024 BKN034 BKN043 81.5 72.7 75% 86 29.83 0.0
16 17:35 W 10 G 16 10.00 Mostly Cloudy SCT024 SCT029 BKN034 82 72.9 74% 87 29.83 0.0
16 17:15 W 14 10.00 Overcast SCT024 BKN030 OVC065 81 72.1 75% 85 29.84 0.0
16 16:55 W 14 G 20 10.00 Overcast BKN024 BKN037 OVC042 80.8 72.3 76% 85 29.84 0.0
16 16:35 W 10 G 17 10.00 Overcast BKN022 BKN031 OVC043 81.3 72.3 74% 86 29.85 0.0
16 16:15 W 12 10.00 Overcast BKN024 OVC030 80.2 72 76% 84 29.85 0.0
16 15:55 W 9 10.00 Overcast OVC024 79 71.4 78% 82 29.86 0.0
16 15:35 W 10 10.00 Overcast OVC026 79.3 71.1 76% 82 29.85 0.0
16 15:15 W 12 G 18 10.00 Overcast BKN026 OVC032 79.5 70.7 75% 83 29.85 0.0
16 14:55 W 13 G 21 10.00 Overcast BKN026 OVC032 79.9 70.2 72% 83 29.85 0.0
16 14:35 W 15 G 21 10.00 Overcast BKN026 OVC031 80.1 69.8 71% 83 29.85 0.0
16 14:15 SW 10 G 17 10.00 Overcast BKN024 OVC028 79.5 69.1 71% 82 29.85 0.0
16 13:55 W 10 10.00 Overcast OVC024 78.6 68.2 70% 81 29.85 0.0
16 13:35 W 12 G 17 10.00 Overcast OVC024 78.1 68.7 73% 80 29.85 0.0
16 13:15 W 14 G 21 10.00 Overcast OVC022 77.2 68.2 74% 79 29.86 0.0
16 12:55 W 14 G 18 10.00 Overcast OVC022 76.6 68.4 76% 78 29.86 0.0
16 12:35 W 9 G 20 10.00 Overcast OVC022 77.2 68.7 75% 79 29.85 0.0
16 12:15 W 14 G 18 10.00 Overcast OVC020 76.1 68 76% 77 29.85 0.0
16 11:55 W 13 G 18 10.00 Overcast OVC022 75.7 67.5 76% 77 29.86 0.0
16 11:35 W 9 10.00 Mostly Cloudy BKN022 77 68 74% 79 29.85 0.0
16 10:55 W 14 10.00 Partly Cloudy SCT022 76.3 67.3 74% 78 29.85 0.0
16 10:35 W 15 G 21 10.00 Fair CLR 75.6 67.5 76% 77 29.85 0.0
16 10:15 SW 15 G 20 10.00 Fair CLR 75.2 67.6 77% 76 29.84 0.0
16 09:55 SW 10 10.00 Fair CLR 74.7 68 80% 29.84 0.0
16 09:35 W 10 10.00 Fair CLR 73.2 67.1 81% 29.85 0.0
16 09:15 W 9 10.00 Fair CLR 72.3 66.9 83% 29.85 0.0
16 08:55 W 12 10.00 Fair CLR 71.6 66.2 83% 29.84 0.0
16 08:15 W 8 10.00 Fair CLR 70 66.4 88% 29.83 0.0
16 07:55 W 7 10.00 Fair CLR 69.4 66.2 90% 29.84 0.0
16 07:35 W 7 10.00 Fair CLR 68.2 66 93% 29.83 0.0
16 07:15 W 7 10.00 Fair CLR 68 66 93% 29.83 0.0
16 06:55 W 7 10.00 Partly Cloudy SCT007 67.8 65.8 93% 29.82 0.0
16 06:35 W 10 10.00 Mostly Cloudy BKN007 68 66.2 94% 29.81 0.0
16 06:15 W 10 10.00 Overcast OVC007 68.2 66.2 93% 29.81 0.0
16 05:55 W 12 G 17 10.00 Overcast OVC007 68.5 66.4 93% 29.8 0.0
16 05:35 W 10 G 20 10.00 Overcast OVC007 68.5 66.4 93% 29.81 0.0
16 05:15 W 12 G 18 10.00 Overcast OVC005 68.5 66.6 93% 29.79 0.0
16 04:55 W 14 G 20 10.00 Overcast OVC005 68.5 66.9 95% 29.79 0.0
16 04:35 W 10 10.00 Overcast OVC007 68.5 67.1 95% 29.77 0.0
16 04:15 W 10 G 16 10.00 Overcast OVC007 68.5 67.1 95% 29.77 0.0
16 03:55 SW 8 10.00 Overcast OVC007 68.9 67.1 94% 29.75 0.0
16 03:35 SW 7 10.00 NULL NULL 68.5 67.1 95% 29.75 0.0
16 00:55 Calm 0.00 NULL NULL 75.2 69.8 83% 75 0 0.0
16 00:35 Calm 0.00 Overcast SCT019 BKN055 OVC110 75.2 69.8 83% 75 0 0.0
16 00:15 SW 13 G 23 10.00 Mostly Cloudy SCT075 SCT100 BKN120 83.5 76.3 79% 92 29.7 0.0
15 23:55 SW 13 G 21 10.00 Fair CLR 83.3 77 81% 93 29.7 0.0
15 23:35 S 7 10.00 Fair CLR 82.2 77.4 85% 91 29.72 0.0
15 23:15 S 6 10.00 Fair CLR 81.5 77.2 87% 89 29.72 0.0
15 22:55 S 6 10.00 Partly Cloudy SCT028 SCT036 80.8 76.6 87% 87 29.74 0.0
15 22:35 S 6 10.00 Mostly Cloudy SCT028 SCT034 BKN041 81 76.3 86% 87 29.74 0.0
15 22:15 S 3 10.00 Partly Cloudy SCT041 81 76.1 85% 87 29.75 0.0
15 21:55 Calm 10.00 Partly Cloudy SCT039 80.8 75.7 85% 87 29.76 0.0
15 21:35 Calm 10.00 Partly Cloudy SCT033 SCT040 81 75.6 84% 87 29.77 0.0
15 21:15 Calm 10.00 Fair CLR 81.5 75.6 82% 88 29.79 0.0
15 20:55 Calm 10.00 Fair CLR 82 75.6 81% 89 29.8 0.0
15 20:35 SW 3 10.00 Fair CLR 83.1 75.4 78% 91 29.79 0.0
15 20:15 SW 5 10.00 Partly Cloudy SCT023 83.7 75.4 76% 92 29.78 0.0
15 19:55 SW 3 10.00 Partly Cloudy SCT023 SCT034 84.2 75.7 76% 93 29.77 0.0
15 19:35 SW 3 10.00 Mostly Cloudy SCT027 BKN034 84.6 75.6 74% 93 29.79 0.0
15 19:15 SW 6 10.00 Mostly Cloudy BKN027 BKN032 BKN038 84.6 75.6 74% 93 29.8 0.0
15 18:55 SW 7 10.00 Mostly Cloudy SCT029 SCT033 BKN041 85.3 74.8 71% 94 29.81 0.0
15 18:35 Calm 10.00 Partly Cloudy SCT038 86 74.7 69% 95 29.81 0.0
15 18:15 SW 5 10.00 NULL NULL 85.5 74.8 71% 94 29.82 0.0
15 17:55 SW 6 10.00 NULL NULL 86.2 74.3 68% 95 29.82 0.0
15 17:35 W 9 10.00 NULL NULL 86.2 74.5 68% 95 29.83 0.0
15 17:15 W 8 10.00 Partly Cloudy SCT029 SCT035 86 74.5 69% 94 29.83 0.0
15 16:55 W 9 10.00 Mostly Cloudy SCT028 BKN034 85.1 74.3 70% 93 29.84 0.0
15 16:35 SW 9 10.00 Mostly Cloudy SCT028 BKN034 85.1 73.6 69% 92 29.85 0.0
15 16:15 W 9 10.00 Mostly Cloudy SCT030 BKN036 85.3 73.8 69% 93 29.86 0.0
15 15:55 SW 8 G 16 10.00 Mostly Cloudy BKN026 BKN034 83.8 73.4 71% 90 29.87 0.0
15 15:35 W 9 10.00 Mostly Cloudy BKN028 BKN034 84.6 73.6 70% 92 29.88 0.0
15 15:15 W 9 10.00 Mostly Cloudy BKN026 83.8 73.9 72% 91 29.88 0.0
15 14:55 W 8 10.00 Mostly Cloudy BKN026 83.1 73 72% 89 29.89 0.0
15 14:35 W 9 10.00 Overcast OVC024 82.6 73.2 73% 88 29.89 0.0
15 14:15 W 6 G 9 10.00 Mostly Cloudy BKN022 82.8 72.7 72% 88 29.9 0.0
15 13:55 W 8 10.00 Mostly Cloudy BKN022 81.7 72 72% 86 29.91 0.0
15 13:35 W 10 10.00 Mostly Cloudy BKN022 BKN029 81.5 71.8 72% 86 29.92 0.0
15 13:15 W 8 10.00 Overcast OVC024 80.1 70.7 73% 83 29.92 0.0
15 12:55 W 9 10.00 Overcast OVC025 79.2 69.8 73% 82 29.92 0.0
15 12:35 W 7 10.00 Overcast OVC029 78.8 69.6 74% 81 29.92 0.0
15 12:15 SW 3 10.00 Overcast BKN031 OVC040 77.2 68.5 75% 79 29.92 0.0
15 11:55 Calm 10.00 Overcast SCT027 BKN035 OVC044 77 68 74% 79 29.92 0.0
15 11:35 SW 6 10.00 Mostly Cloudy BKN027 BKN039 76.6 68 75% 78 29.92 0.0
Date Time (edt) Wind (mph) Vis. (mi.) Weather Sky Cond. Air Dwpt Max. Min. Relative Humidity Wind Chill (°F) Heat Index (°F) altimeter (in) sea level (mb) 1 hr 3 hr 6 hr
6 hour
Temperature (ºF) Pressure Precipitation (in)